Weather History for Fremont, NE

Change the Weather History Date:

Wednesday, August 20, 2014

  Actual Average Record
Temperature  
Mean Temperature 82 °F -  
Max Temperature 91 °F 85 °F 101 °F (1955)
Min Temperature 72 °F 62 °F 39 °F (1950)
Cooling Degree Days 16    
Growing Degree Days 32 (Base 50)    
Moisture  
Dew Point 70 °F    
Average Humidity 72    
Maximum Humidity 86    
Minimum Humidity 53    
Precipitation  
Precipitation 0.00 in - - ()
Sea Level Pressure  
Sea Level Pressure 29.79 in    
Wind  
Wind Speed 9 mph (ESE)    
Max Wind Speed 20 mph    
Max Gust Speed 26 mph    
Visibility 10 miles    
Events Rain , Thunderstorm    
Averages and records for this station are not official NWS values.
T = Trace of Precipitation, MM = Missing Value Source: NWS Daily Summary

Daily Weather History Graph

Daily Weather History Graph

Search for Another Location

Airport:

Trip Planner

Search our weather history database for the weather conditions in past years. The results will help you decide how hot, cold, wet, or windy it might be!

Date:

Astronomy

Aug. 20, 2014 Rise Set
Actual Time 6:40 AM CDT 8:17 PM CDT
Civil Twilight 6:10 AM CDT 8:47 PM CDT
Nautical Twilight 5:35 AM CDT 9:22 PM CDT
Astronomical Twilight 4:57 AM CDT 10:00 PM CDT
Moon 2:19 AM CDT (8/20) 5:05 PM CDT (8/20)
Length of Visible Light 14h 36m
Length of Day
13h 37m
Waning Crescent, 20% of the Moon is Illuminated
Aug 20
Waning Crescent
Aug 25
New
Sep 2
First Quarter
Sep 8
Full
Sep 15
Last Quarter

Hourly Weather History & Observations

Time (CDT) Temp. Heat Index Dew Point Humidity Pressure Visibility Wind Dir Wind Speed Gust Speed Precip Events Conditions
12:35 AM 74.7 °F - 66.0 °F 74% 29.81 in 10.0 mi East 4.6 mph - N/A   Clear
12:55 AM 75.2 °F - 65.7 °F 72% 29.81 in 10.0 mi East 5.8 mph - N/A   Clear
1:15 AM 74.8 °F - 65.7 °F 73% 29.81 in 10.0 mi East 5.8 mph - N/A   Clear
1:35 AM 74.5 °F - 65.8 °F 74% 29.81 in 10.0 mi East 4.6 mph - N/A   Clear
1:55 AM 74.5 °F - 66.0 °F 75% 29.80 in 10.0 mi East 6.9 mph - N/A   Clear
2:15 AM 74.3 °F - 66.2 °F 76% 29.79 in 10.0 mi East 5.8 mph - N/A   Clear
2:35 AM 74.1 °F - 66.2 °F 76% 29.77 in 10.0 mi ESE 6.9 mph - N/A   Clear
2:55 AM 74.8 °F - 66.6 °F 75% 29.77 in 10.0 mi ESE 9.2 mph - N/A   Clear
3:15 AM 74.7 °F - 67.1 °F 77% 29.77 in 10.0 mi SE 6.9 mph - N/A   Scattered Clouds
3:35 AM 74.5 °F - 67.5 °F 79% 29.77 in 10.0 mi SE 5.8 mph - N/A   Clear
3:55 AM 75.2 °F - 68.0 °F 78% 29.75 in 10.0 mi SE 6.9 mph - N/A   Clear
4:15 AM 75.6 °F - 68.4 °F 78% 29.74 in 10.0 mi SSE 8.1 mph - N/A   Clear
4:35 AM 75.6 °F - 68.5 °F 79% 29.74 in 10.0 mi SE 6.9 mph - N/A   Clear
4:55 AM 75.2 °F - 68.5 °F 80% 29.75 in 10.0 mi ESE 5.8 mph - N/A   Clear
5:15 AM 75.2 °F - 68.5 °F 80% 29.76 in 10.0 mi ENE 4.6 mph - N/A   Scattered Clouds
5:35 AM 74.8 °F - 68.9 °F 82% 29.76 in 10.0 mi ESE 3.5 mph - N/A Thunderstorm Clear
5:55 AM 74.3 °F - 68.9 °F 83% 29.76 in 10.0 mi Calm Calm - N/A   Clear
6:15 AM 75.2 °F - 68.9 °F 81% 29.76 in 10.0 mi East 3.5 mph - N/A   Clear
6:35 AM 73.8 °F - 69.3 °F 86% 29.77 in 10.0 mi SE 3.5 mph - N/A   Clear
6:55 AM 75.2 °F - 68.9 °F 81% 29.79 in 10.0 mi NNE 8.1 mph - N/A   Clear
7:15 AM 73.4 °F - 67.5 °F 82% 29.82 in 10.0 mi NE 8.1 mph - N/A   Clear
7:35 AM 72.9 °F - 67.5 °F 83% 29.83 in 10.0 mi NE 8.1 mph - N/A Rain Light Rain
7:55 AM 72.9 °F - 67.6 °F 84% 29.82 in 10.0 mi ENE 9.2 mph - N/A   Clear
8:15 AM 73.2 °F - 67.5 °F 82% 29.82 in 10.0 mi ENE 6.9 mph - N/A   Clear
8:35 AM 73.4 °F - 67.5 °F 82% 29.83 in 10.0 mi ENE 4.6 mph - N/A   Clear
8:55 AM 73.4 °F - 68.0 °F 83% 29.83 in 10.0 mi ENE 11.5 mph - N/A   Clear
9:15 AM 73.0 °F - 67.5 °F 83% 29.84 in 10.0 mi East 11.5 mph - N/A   Clear
9:35 AM 73.0 °F - 67.1 °F 82% 29.84 in 10.0 mi East 12.7 mph - N/A   Clear
9:55 AM 74.1 °F - 67.5 °F 80% 29.85 in 10.0 mi ESE 10.4 mph - N/A   Clear
10:15 AM 74.3 °F - 67.5 °F 79% 29.84 in 10.0 mi East 13.8 mph - N/A   Clear
10:35 AM 74.5 °F - 67.1 °F 78% 29.84 in 10.0 mi ESE 10.4 mph - N/A   Clear
10:55 AM 75.2 °F - 67.5 °F 77% 29.84 in 10.0 mi ESE 12.7 mph 17.3 mph N/A   Scattered Clouds
11:15 AM 75.2 °F - 67.5 °F 77% 29.85 in 10.0 mi ESE 11.5 mph - N/A   Clear
11:35 AM 76.1 °F - 67.6 °F 75% 29.84 in 10.0 mi SE 10.4 mph - N/A   Clear
11:55 AM 76.1 °F - 68.2 °F 76% 29.84 in 10.0 mi SE 10.4 mph - N/A Rain Light Rain
12:15 PM 77.4 °F - 68.9 °F 75% 29.83 in 10.0 mi SE 15.0 mph 18.4 mph N/A   Clear
12:35 PM 78.1 °F - 68.9 °F 73% 29.83 in 10.0 mi SE 11.5 mph 20.7 mph N/A   Clear
12:55 PM 79.0 °F - 69.8 °F 73% 29.82 in 10.0 mi ESE 13.8 mph - N/A   Clear
1:15 PM 82.6 °F 87.3 °F 71.4 °F 69% 29.81 in 10.0 mi ESE 10.4 mph - N/A   Clear
1:35 PM 83.3 °F 87.9 °F 70.9 °F 66% 29.80 in 10.0 mi SE 15.0 mph 21.9 mph N/A   Clear
1:55 PM 85.3 °F 90.4 °F 71.1 °F 62% 29.79 in 10.0 mi SE 16.1 mph - N/A   Clear
2:15 PM 87.6 °F 93.9 °F 71.6 °F 59% 29.79 in 10.0 mi SE 19.6 mph 26.5 mph N/A   Clear
2:35 PM 86.9 °F 92.9 °F 71.6 °F 60% 29.79 in 10.0 mi SE 17.3 mph 21.9 mph N/A   Clear
2:55 PM 89.6 °F 96.2 °F 71.6 °F 55% 29.78 in 10.0 mi SE 13.8 mph 21.9 mph N/A   Clear
3:15 PM 88.9 °F 95.6 °F 71.8 °F 57% 29.78 in 10.0 mi SE 15.0 mph 19.6 mph N/A   Clear
3:55 PM 90.1 °F 96.3 °F 70.9 °F 53% 29.77 in 10.0 mi SE 11.5 mph 20.7 mph N/A   Clear
4:15 PM 88.3 °F 95.0 °F 71.8 °F 58% 29.77 in 10.0 mi SE 16.1 mph 21.9 mph N/A   Clear
4:35 PM 88.3 °F 95.9 °F 72.7 °F 60% 29.77 in 10.0 mi ESE 15.0 mph 20.7 mph N/A   Clear
4:55 PM 91.0 °F 99.3 °F 72.7 °F 55% 29.77 in 10.0 mi SE 18.4 mph 24.2 mph N/A   Clear
5:15 PM 91.0 °F 99.3 °F 72.9 °F 55% 29.77 in 10.0 mi SE 18.4 mph - N/A   Clear
5:35 PM 90.1 °F 97.8 °F 72.7 °F 56% 29.76 in 10.0 mi SE 18.4 mph 26.5 mph N/A   Clear
5:55 PM 90.1 °F 98.9 °F 73.4 °F 58% 29.76 in 10.0 mi SE 18.4 mph 24.2 mph N/A   Clear
6:15 PM 90.0 °F 97.9 °F 73.0 °F 57% 29.76 in 10.0 mi SE 15.0 mph - N/A   Clear
6:35 PM 89.4 °F 97.3 °F 72.7 °F 58% 29.76 in 10.0 mi SE 17.3 mph 20.7 mph N/A   Clear
6:55 PM 88.9 °F 96.1 °F 72.5 °F 58% 29.76 in 10.0 mi SE 13.8 mph 20.7 mph N/A   Clear
7:15 PM 87.8 °F 94.3 °F 72.0 °F 59% 29.76 in 10.0 mi SE 11.5 mph 19.6 mph N/A   Clear
7:35 PM 86.9 °F 93.7 °F 72.5 °F 62% 29.76 in 10.0 mi SE 11.5 mph 18.4 mph N/A   Clear
7:55 PM 86.4 °F 92.6 °F 72.1 °F 62% 29.76 in 10.0 mi SE 12.7 mph 18.4 mph N/A   Clear
8:15 PM 85.5 °F 91.5 °F 72.1 °F 64% 29.76 in 10.0 mi SE 10.4 mph - N/A   Clear
8:35 PM 84.4 °F 90.3 °F 72.1 °F 67% 29.77 in 10.0 mi SE 9.2 mph - N/A   Clear
8:55 PM 83.7 °F 89.2 °F 72.0 °F 68% 29.77 in 10.0 mi ESE 10.4 mph - N/A   Clear
9:15 PM 83.3 °F 88.4 °F 72.0 °F 68% 29.77 in 10.0 mi SE 9.2 mph 17.3 mph N/A   Clear
9:35 PM 82.9 °F 88.0 °F 72.0 °F 69% 29.77 in 10.0 mi SE 11.5 mph - N/A   Clear
9:55 PM 82.8 °F 87.9 °F 72.0 °F 70% 29.77 in 10.0 mi SE 9.2 mph - N/A   Clear
10:15 PM 82.2 °F 87.1 °F 72.0 °F 71% 29.78 in 10.0 mi SE 9.2 mph 18.4 mph N/A   Clear
10:35 PM 81.7 °F 86.3 °F 72.0 °F 72% 29.78 in 10.0 mi SE 10.4 mph 18.4 mph N/A   Clear
10:55 PM 81.5 °F 85.9 °F 71.8 °F 72% 29.77 in 10.0 mi SE 11.5 mph - N/A   Clear
11:15 PM 81.0 °F 85.2 °F 72.0 °F 74% 29.77 in 10.0 mi SE 10.4 mph - N/A   Clear
11:35 PM 80.4 °F 84.4 °F 72.0 °F 75% 29.77 in 10.0 mi SE 8.1 mph - N/A   Clear
11:55 PM 80.1 °F 83.8 °F 71.8 °F 76% 29.77 in 10.0 mi SE 9.2 mph - N/A   Clear